User: anonymous   Login
Location: Petruro
(41.0333°N, 14.7833°E)
Time: 23:18:19
(UTC+00:00)
Language:

Cosmos 1271 Rocket - Orbit

View from above orbital plane
View from above orbital plane
View from above satellite
View from above satellite

Ground track
Ground track

The orbit data is extracted from the following two-line orbital elements,

1 12465U 81046B   21262.54627026  .00000270  00000-0  12792-4 0  9996
2 12465  81.2435  36.0922 0034207 158.1802 202.0893 15.15078403189787
Epoch (UTC): 19 September 2021 13:06:37
Eccentricity: 0.0034207
inclination: 81.2435°
perigee height: 497 km
apogee height: 544 km
right ascension of ascending node: 36.0922°
argument of perigee: 158.1802°
revolutions per day: 15.15078403
mean anomaly at epoch: 202.0893°
orbit number at epoch: 18978

The dashed part of the orbit path shows where the satellite is in the earth's shadow,  

DLR